DIAMANT B-P4 R/B, 7647

Orbit data source: Space-Track

DIAMANT B-P4 R/B, 7647 is space debris in LEO originally from a launch on Thu, 06 Feb 1975 UTC launched from the French Guiana (FRGUI). Debris objects in space refer to the collection of defunct objects orbiting the Earth. Examples of debris include non-operational satellites, rocket bodies, and fragments generated from explosions, collisions, or faulty payload assembly.

Loading next visibility...
Identifier
7647, 1975-010B
Orbit
LEO
Country
Flag of FRFR
Related business
Manufacturer
Ae/Cannes
Mission
Spacecraft
Bus & Motor
RUBIS, Unknown motor
Mass
~95 kg wet, ~95 kg dry
Launch date (UTC)
1975-02-06 (51 years ago)
Launch vehicle
Unknown
Launch site
French Guiana (FRGUI)
Object type
Payload
Rocket body
Debris
Shape & HBR
Cyl, 0.8 m
Radar Cross Section
0.983 m², Medium (>0.1 m² and < 1m²)

Expand to show TLE details & history
Last TLE update: 20 hours ago

TLE from 20 hours ago
0 DIAMANT B-P4 R/B
1 07647U 75010B   25260.16555133 -.00000071  00000-0  57585-4 0  9994
2 07647  49.8248 305.5732 0217272  64.9501 297.3778 13.82280944553278
Epoch: 2025-09-17T03:58Z
TLE epoch observation values (Epoch: 2025-09-17T03:58:23.634Z)
Latitude
-0.00001°
Longitude
-110.3707°
Altitude
885.806 km
Speed
7.446 km/s
True Right ascension
20h 22m 17s
True Declination
0° 00' 00"
Sunlit
Object was in full shadow at epoch
Visualization orbit readout
Latitude
Unknown
Longitude
Unknown
Altitude
Unknown
Speed
Unknown
Apparent Right ascension
Unknown
Apparent Declination
Unknown
Sunlit
N/A
Visualization observer readout
Local Sidereal Time
16:49:33
Azimuth
Unknown
Elevation
Unknown
Doppler factor
Unknown
Orbital elements
Apogee altitude
1,115.921 km
Perigee altitude
797.197 km
Semi-major axis
7,334.696 km
Eccentricity
0.02173
Inclination
49.8248°
RAAN
305.5732°
Arg. of periapsis
64.9501°
True anomaly
295.13954°
Mean anomaly
297.3778°
Eccentric anomaly
296.26141°
Mean motion
3.45517 °/min
Orbital period
104.19 mins
BSTAR
0.000057585
Loading maneuver chart data...
Computing Atmospheric mass density...
Loading historical data...
Loading historical data...
Loading historical data...
Loading historical data...
Loading historical data...
Loading historical data...
Loading historical data...
Other satellites on launch #10 in the year 1975 (1975-02-06 UTC)

Documentation

Showing up to 5 results
|